Probability
0 0 0 0 0 0 0 0 0 0 0 0 0 0 0 0 0 0 0 0 0 0 0 0 0 0 0 0 0 0 0 0 0 0 0 0 0 0 0 0 0 0 0
0 0 0 0 0 0 0 0 0 0 0 0 0 0 0 0 0 0 0 0 0 0 0 0 0 0 0 0 0 0 0 0 0 0 0 0 0 0 0 0 0 0 0
0 0 0 0 0 0 0 0 0 0 0 0 0 0 0 0 0 0 0 0 0 0 0 0 0 0 0 0 0 0 0 0 0 0 0 0 0 0 0 0 0 0 0
0 0 0 0 0 0 0 0 0 0 0 0 0 0 0 0 0 0 0 0 0 0 0 0 0 0 0 0 0 0 0 0 0 0 0 0 0 0 0 0 0 0 0
0 0 0 0 0 0 0 0 0 0 0 0 0 0 0 0 0 0 0 0 0 0 0 0 0 0 0 0 0 0 0 0 0 0 0 0 0 0 0 0 0 0 0
0 0 0 0 0 0 0 0 0 0 0 0 0 0 0 0 0 0 0 0 0 0 0 0 0 0 0 0 0 0 0 0 0 0 0 0 0 0 0 0 0 0 0
0 0 0 0 0 0 0 0 0 0 0 0 0 0 0 0 0 0 0 0 0 0 0 0 0 0 0 0 0 0 0 0 0 0 0 0 0 0 0 0 0 0 0
0 0 0 0 0 0 0 0 0 0 0 0 0 0 0 0 0 0 0 0 0 0 0 0 0 0 0 0 0 0 0 0 0 0 0 0 0 0 0 0 0 0 0
0 0 0 0 0 0 0 0 0 0 0 0 0 0 0 0 0 0 0 0 0 0 0 0 0 0 0 0 0 0 0 0 0 0 0 0 0 0 0 0 0 0 0
0 0 0 0 0 0 0 0 0 0 0 0 0 0 0 0 0 0 0 0 0 0 0 0 0 0 0 0 0 0 0 0 0 0 0 0 0 0 0 0 0 0 0
0 0 0 0 0 0 0 0 0 0 0 0 0 0 0 0 0 0 0 0 0 0 0 0 0 0 0 0 0 0 0 0 0 0 0 0 0 0 0 0 0 0 0
0 0 0 0 0 0 0 0 0 0 0 0 0 0 0 0 0 0 0 0 0 0 0 0 0 0 0 0 0 0 0 0 0 0 0 0 0 0 0 0 0 0 0
0 0 0 0 0 0 0 0 0 0 0 0 0 0 0 0 0 0 0 0 0 0 0 0 0 0 0 0 0 0 0 0 0 0 0 0 0 0 0 0 0 0 0
0 0 0 0 0 0 0 0 0 0 0 0 0 0 0 0 0 0 0 0 0 0 0 0 0 0 0 0 0 0 0 0 0 0 0 0 0 0 0 0 0 0 0
0 0 0 0 0 0 0 0 0 0 0 0 0 0 0 0 0 0 0 0 0 0 0 0 0 0 0 0 0 0 0 0 0 0 0 0 0 0 0 0 0 0 0
0 0 0 0 0 0 0 0 0 0 0 0 0 0 0 0 0 0 0 0 0 0 0 0 0 0 0 0 0 0 0 0 0 0 0 0 0 0 0 0 0 0 0
0 0 0 0 0 0 0 0 0 0 0 0 0 0 0 0 0 0 0 0 0 0 0 0 0 0 0 0 0 0 0 0 0 0 0 0 0 0 0 0 0 0 0
0 0 0 0 0 0 0 0 0 0 0 0 0 0 0 0 0 0 0 0 0 0 0 0 0 0 0 0 0 0 0 0 0 0 0 0 0 0 0 0 0 0 0
0 0 0 0 0 0 0 0 0 0 0 0 0 0 0 0 0 0 0 0 0 0 0 0 0 0 0 0 0 0 0 0 0 0 0 0 0 0 0 0 0 0 0
0 0 0 0 0 0 0 0 0 0 0 0 0 0 0 0 0 0 0 0 0 0 0 0 0 0 0 0 0 0 0 0 0 0 0 0 0 0 0 0 0 0 0
0 0 0 0 0 0 0 0 0 0 0 0 0 0 0 0 0 0 0 0 0 0 0 0 0 0 0 0 0 0 0 0 0 0 0 0 0 0 0 0 0 0 0
0 0 0 0 0 0 0 0 0 0 0 0 0 0 0 0 0 0 0 0 0 0 0 0 0 0 0 0 0 0 0 0 0 0 0 0 0 0 0 0 0 0 0
0 0 0 0 0 0 0 0 0 0 0 0 0 0 0 0 0 0 0 0 0 0 0 0 0 0 0 0 0 0 0 0 0 0 0 0 0 0 0 0 0 0 0
0 0 0 0 0 0 0 0 0 0 0 0 0 0 0 0 0 0 0 0 0 0 0 0 0 0 0 0 0 0 0 0 0 0 0 0 0 0 0 0 0 0 0
0 0 0 0 0 0 0 0 0 0 0 0 0 0 0 0 0 0 0 0 0 0 0 0 0 0 0 0 0 0 0 0 0 0 0 0 0 0 0 0 0 0 0
0 0 0 0 0 0 0 0 0 0 0 0 0 0 0 0 0 0 0 0 0 0 0 0 0 0 0 0 0 0 0 0 0 0 0 0 0 0 0 0 0 0 0
Height
5704 5702 5700 5698 5695 5692 5689 5685 5681 5677 5672 5667 5662 5656 5649 5642 5634 5626 5617 5608 5598 5588 5578 5568 5557 5546 5534 5520 5505 5490 5473 5453 5440 5441 5433 5416 5398 5381 5365 5349 5335 5326 5320
5696 5695 5692 5690 5686 5683 5680 5676 5672 5667 5662 5656 5650 5644 5636 5628 5619 5611 5602 5592 5582 5572 5561 5549 5537 5524 5511 5495 5480 5464 5446 5426 5404 5392 5391 5380 5366 5351 5338 5327 5315 5303 5295
5689 5687 5684 5681 5678 5674 5670 5666 5662 5656 5651 5644 5638 5630 5622 5614 5605 5596 5587 5577 5565 5554 5541 5528 5515 5501 5486 5470 5453 5435 5416 5398 5377 5357 5350 5343 5335 5323 5311 5302 5292 5283 5274
5681 5678 5675 5672 5669 5665 5661 5656 5651 5645 5639 5632 5625 5617 5608 5600 5591 5581 5571 5560 5548 5535 5521 5506 5490 5474 5457 5440 5423 5404 5385 5368 5351 5335 5323 5315 5307 5297 5285 5277 5272 5265 5257
5672 5669 5666 5663 5659 5655 5650 5645 5639 5633 5626 5619 5611 5603 5594 5585 5575 5565 5555 5543 5530 5516 5500 5483 5466 5448 5428 5408 5389 5371 5354 5339 5325 5313 5302 5293 5285 5276 5267 5260 5254 5250 5244
5663 5660 5657 5653 5649 5644 5640 5634 5628 5621 5613 5605 5597 5589 5579 5570 5559 5548 5536 5524 5510 5494 5478 5461 5442 5422 5402 5383 5363 5345 5328 5314 5302 5292 5284 5275 5268 5260 5254 5247 5241 5236 5233
5654 5651 5647 5643 5639 5634 5629 5623 5616 5608 5601 5592 5583 5575 5565 5554 5543 5531 5518 5504 5488 5471 5452 5434 5416 5396 5375 5357 5341 5327 5313 5299 5287 5277 5270 5263 5256 5250 5244 5239 5232 5225 5220
5645 5641 5638 5633 5629 5624 5618 5611 5604 5596 5587 5579 5569 5560 5549 5538 5526 5513 5499 5485 5467 5448 5427 5406 5387 5370 5351 5334 5321 5309 5298 5287 5277 5268 5261 5254 5248 5241 5235 5229 5223 5218 5211
5636 5632 5628 5624 5619 5613 5606 5599 5592 5583 5574 5565 5555 5544 5533 5521 5507 5493 5478 5463 5446 5427 5406 5383 5361 5345 5331 5316 5303 5293 5285 5277 5268 5260 5253 5247 5241 5235 5228 5223 5217 5211 5206
5627 5623 5619 5614 5608 5601 5595 5587 5579 5571 5562 5552 5541 5529 5517 5504 5488 5472 5455 5439 5424 5408 5388 5366 5345 5328 5314 5302 5291 5283 5276 5269 5263 5257 5250 5244 5237 5231 5224 5217 5211 5206 5201
5618 5613 5609 5603 5597 5590 5583 5575 5567 5559 5550 5540 5529 5515 5500 5485 5469 5450 5431 5411 5394 5379 5363 5347 5331 5316 5303 5293 5284 5276 5269 5263 5258 5253 5247 5242 5235 5229 5222 5215 5208 5202 5197
5608 5604 5598 5592 5586 5579 5571 5563 5555 5546 5536 5525 5514 5500 5483 5465 5448 5430 5411 5390 5370 5355 5342 5329 5317 5305 5295 5287 5279 5272 5266 5261 5255 5250 5244 5239 5233 5228 5221 5214 5207 5200 5194
5598 5593 5587 5581 5574 5567 5559 5551 5542 5532 5522 5511 5498 5484 5468 5449 5430 5411 5393 5374 5357 5342 5329 5317 5306 5297 5290 5282 5276 5270 5265 5259 5253 5248 5243 5238 5232 5226 5220 5214 5207 5201 5194
5588 5583 5576 5570 5563 5555 5547 5538 5529 5518 5507 5494 5481 5467 5451 5432 5413 5395 5379 5361 5346 5333 5321 5310 5301 5292 5285 5279 5274 5268 5262 5257 5252 5247 5242 5237 5231 5225 5220 5214 5208 5202 5196
5578 5572 5566 5559 5552 5544 5535 5525 5515 5503 5489 5476 5462 5446 5430 5415 5395 5377 5360 5347 5334 5323 5313 5304 5297 5290 5283 5277 5271 5266 5261 5255 5250 5246 5241 5236 5230 5225 5219 5213 5208 5202 5197
5568 5562 5555 5548 5541 5533 5523 5512 5499 5486 5471 5455 5439 5424 5407 5391 5375 5361 5348 5334 5323 5314 5306 5299 5293 5287 5281 5276 5270 5265 5260 5255 5250 5245 5240 5234 5229 5224 5219 5213 5208 5203 5198
5557 5551 5544 5537 5529 5520 5510 5500 5488 5472 5454 5436 5420 5404 5388 5372 5359 5347 5336 5325 5315 5308 5301 5295 5290 5285 5280 5274 5269 5264 5259 5254 5249 5243 5238 5233 5228 5223 5218 5213 5209 5204 5200
5547 5541 5533 5525 5516 5507 5496 5484 5471 5458 5443 5425 5405 5388 5373 5358 5346 5336 5327 5318 5310 5303 5298 5293 5288 5283 5278 5273 5268 5263 5258 5252 5247 5241 5236 5231 5227 5222 5218 5213 5209 5205 5202
5536 5529 5521 5513 5503 5492 5481 5468 5454 5439 5424 5409 5393 5377 5362 5349 5337 5327 5320 5313 5307 5302 5297 5292 5287 5282 5277 5272 5267 5262 5256 5251 5245 5239 5234 5229 5225 5221 5217 5213 5209 5206 5203
5525 5517 5509 5499 5489 5477 5465 5451 5437 5422 5407 5392 5378 5365 5354 5342 5332 5323 5315 5309 5305 5300 5296 5291 5287 5282 5277 5272 5266 5260 5255 5249 5243 5237 5231 5227 5223 5219 5216 5212 5209 5207 5204
5513 5505 5496 5485 5474 5462 5448 5435 5421 5406 5391 5377 5364 5352 5342 5333 5325 5318 5312 5308 5304 5300 5295 5291 5286 5281 5276 5271 5265 5259 5253 5247 5241 5235 5230 5225 5221 5218 5214 5212 5209 5207 5205
5501 5492 5482 5471 5459 5446 5432 5418 5404 5390 5376 5364 5353 5342 5333 5325 5319 5314 5310 5307 5303 5300 5296 5291 5286 5281 5276 5270 5264 5258 5251 5245 5239 5234 5229 5224 5220 5217 5214 5211 5209 5207 5205
5489 5479 5468 5455 5443 5430 5416 5402 5388 5375 5363 5353 5343 5335 5327 5321 5317 5313 5310 5307 5304 5300 5296 5292 5287 5281 5275 5269 5263 5257 5251 5245 5239 5233 5229 5224 5220 5217 5214 5211 5208 5206 5205
5475 5464 5453 5440 5427 5414 5401 5387 5374 5363 5353 5343 5335 5328 5323 5318 5316 5313 5311 5308 5305 5301 5297 5293 5287 5282 5276 5270 5264 5258 5252 5246 5241 5235 5230 5226 5221 5218 5214 5211 5208 5206 5205
5461 5449 5437 5425 5412 5399 5386 5373 5361 5351 5343 5335 5329 5324 5320 5317 5316 5314 5312 5310 5307 5303 5299 5294 5289 5283 5278 5272 5266 5260 5254 5249 5243 5238 5233 5228 5223 5219 5215 5212 5209 5207 5205
5446 5435 5422 5409 5396 5383 5371 5360 5351 5342 5334 5328 5324 5321 5319 5317 5316 5315 5314 5312 5309 5305 5301 5297 5292 5287 5281 5276 5270 5264 5258 5253 5247 5242 5237 5232 5227 5222 5218 5214 5211 5208 5206
Wind_Speed
31 33 34 36 39 40 41 43 44 45 47 49 51 54 56 60 62 64 66 67 68 69 72 75 79 84 88 93 98 103 108 113 117 114 112 109 105 100 95 91 89 87 84
31 33 35 37 39 40 42 43 45 47 49 51 54 57 60 62 64 66 66 68 70 72 76 81 86 90 95 100 104 109 113 116 117 115 107 97 90 85 82 81 81 81 79
32 33 36 37 39 41 42 44 46 49 51 54 57 59 62 64 65 66 67 70 73 77 82 87 92 97 101 106 110 113 114 113 109 104 96 87 81 78 77 74 73 71 69
32 34 36 38 40 42 44 46 48 51 53 56 59 62 63 64 65 67 69 73 78 83 89 94 99 103 108 111 113 113 110 104 96 91 86 80 75 70 67 63 58 55 53
33 35 37 39 41 43 45 48 50 53 56 59 61 63 64 65 67 70 73 78 83 89 94 99 104 108 112 113 112 107 100 93 86 81 76 70 63 58 54 51 48 44 41
34 36 38 40 42 45 47 49 52 55 58 60 62 63 65 66 70 74 79 84 90 95 99 104 108 110 111 108 102 95 88 82 76 70 64 58 52 49 45 43 39 35 33
35 37 39 42 44 46 48 51 54 57 59 61 62 64 66 69 74 79 84 89 95 100 104 107 109 108 104 97 89 81 74 67 63 58 53 48 44 41 38 35 34 33 32
36 38 41 43 45 48 51 53 56 58 59 61 63 65 69 74 79 84 89 94 99 103 106 108 106 99 91 85 78 69 60 54 49 46 43 41 38 37 35 33 31 28 27
37 40 42 44 47 50 53 55 57 58 59 62 65 69 74 79 84 90 94 98 102 104 104 102 96 88 80 73 66 57 49 43 39 37 36 35 34 33 33 30 28 26 23
38 41 43 46 49 51 53 55 56 58 60 64 68 73 79 84 89 95 99 102 103 102 98 90 83 76 68 61 53 46 39 33 30 28 28 29 29 30 31 31 29 26 22
39 42 45 48 50 52 53 55 56 59 62 67 72 77 83 89 94 99 102 103 102 97 88 79 70 63 56 49 43 37 31 27 24 23 23 24 26 27 28 29 29 27 23
41 44 46 49 50 51 53 55 58 61 65 70 75 81 87 92 97 100 101 99 95 87 77 68 59 51 44 39 34 28 25 23 22 22 22 23 23 24 25 26 27 27 24
43 45 47 49 50 51 53 56 60 65 69 74 80 85 90 94 98 100 97 91 83 75 66 57 48 41 36 31 26 23 21 20 20 21 21 22 22 22 23 24 25 26 25
44 45 47 48 50 52 56 60 64 69 74 79 84 89 93 96 98 96 89 80 71 63 53 45 38 34 30 25 22 21 19 20 20 20 20 21 22 23 23 23 22 22 22
44 45 47 48 51 54 59 63 68 73 79 84 88 92 95 96 93 88 79 69 61 53 43 36 31 27 24 23 22 20 21 21 21 21 21 21 22 22 23 22 22 22 20
44 45 47 49 53 57 61 67 73 78 83 88 92 94 95 92 85 76 67 60 52 43 35 29 25 21 20 19 19 20 20 20 20 21 21 21 21 21 22 21 21 20 19
44 46 48 52 56 60 65 70 75 80 85 90 93 93 90 83 74 66 58 50 42 35 29 24 21 19 19 18 19 19 20 20 21 21 21 21 21 21 20 20 19 18 17
45 48 51 55 59 64 69 74 78 82 86 89 90 88 81 72 65 58 50 41 34 29 24 20 19 18 18 18 19 20 21 22 22 22 21 21 21 20 18 18 17 16 14
47 50 54 58 63 68 73 77 81 85 88 88 85 77 70 63 56 50 42 34 27 22 19 18 17 17 18 18 20 21 22 23 23 23 22 21 20 18 16 15 15 14 12
49 53 58 62 67 72 76 80 84 87 87 83 76 68 60 54 46 40 32 25 20 17 16 16 16 17 18 19 21 23 23 24 24 23 22 19 17 16 14 13 12 11 10
52 57 62 67 71 75 79 83 86 86 82 75 67 61 54 45 38 30 23 18 15 14 15 15 17 18 20 21 23 24 24 24 24 22 20 17 15 14 12 11 10 8 7
56 61 66 70 74 78 82 85 85 81 74 66 59 53 45 37 29 21 16 13 12 13 14 16 18 19 21 22 23 24 23 23 22 20 18 16 15 13 11 10 8 6 5
60 65 69 73 77 81 84 84 80 73 65 58 52 43 35 27 19 13 11 11 12 13 15 17 19 21 22 23 23 22 22 20 20 19 18 16 14 13 11 9 8 6 4
64 68 72 76 80 83 83 79 72 65 58 51 42 33 24 16 11 9 9 10 11 13 16 18 20 22 23 23 23 23 22 21 20 19 18 16 15 13 12 10 8 6 4
67 71 75 79 81 82 78 71 64 57 50 41 31 22 14 8 6 6 8 9 12 14 17 19 21 22 23 23 23 23 23 22 22 20 19 18 17 15 13 11 10 8 5
71 74 78 80 81 77 71 63 56 50 41 31 21 12 6 4 5 7 8 10 13 16 18 20 21 23 23 23 24 24 24 23 22 21 20 20 19 18 16 14 12 10 8
Wind_Direction
271 275 280 284 287 290 291 293 294 295 296 297 298 300 301 302 303 304 305 306 306 306 306 306 307 307 307 307 307 306 306 306 305 304 303 302 299 296 293 292 290 289 288
274 278 282 286 288 291 292 294 295 296 297 299 300 301 303 304 305 306 306 307 307 307 307 307 308 308 308 307 307 307 307 306 306 305 304 301 298 295 293 291 290 289 288
278 281 284 287 290 292 294 295 296 297 299 301 302 303 305 306 307 307 307 307 308 308 309 309 309 309 309 308 308 308 308 307 306 304 304 302 300 297 294 292 290 289 289
281 284 287 289 291 293 295 296 297 299 301 302 304 305 306 307 307 308 308 309 309 309 310 310 310 310 310 309 309 309 308 307 306 304 304 303 302 300 297 295 294 292 291
284 287 290 292 293 295 297 298 299 301 302 304 305 307 307 308 308 309 310 310 310 311 311 311 311 311 311 312 311 310 309 307 306 305 305 305 305 303 301 301 300 297 294
287 289 292 293 295 297 298 300 301 303 304 306 307 308 308 309 309 310 311 312 312 312 312 312 312 313 313 312 311 310 309 308 307 307 307 307 307 307 307 307 306 302 298
289 291 293 295 296 298 299 301 302 304 306 307 307 308 309 310 311 311 312 313 313 314 314 314 314 314 314 313 311 310 309 308 307 308 309 310 311 312 313 313 312 309 304
290 292 294 296 297 299 300 302 304 306 307 307 309 310 311 311 312 313 314 314 315 315 316 316 316 315 314 313 313 312 312 311 310 310 311 313 316 318 320 322 322 320 314
291 293 295 296 298 300 302 304 306 307 308 309 311 312 312 313 314 314 315 316 316 317 318 318 317 316 316 315 315 316 316 315 314 314 315 319 322 325 327 329 331 331 326
292 293 295 297 299 301 303 305 307 308 310 311 313 313 314 315 316 316 317 317 318 318 319 318 317 317 317 317 318 319 319 319 319 319 321 324 328 331 333 335 338 340 336
292 294 296 299 301 303 305 306 308 310 311 313 314 315 316 317 317 318 319 320 320 321 321 320 319 318 318 319 320 322 325 327 327 328 331 333 336 338 339 340 341 342 343
294 296 299 301 303 304 306 308 310 311 313 314 316 317 317 318 319 320 321 321 322 322 322 322 321 321 321 322 324 327 330 333 335 337 340 343 345 345 346 346 346 348 350
297 299 301 303 304 306 308 310 311 313 314 316 317 318 319 319 320 321 322 322 322 322 323 323 324 324 325 327 329 333 336 340 343 345 347 347 348 349 351 351 352 352 354
299 301 303 305 307 308 310 312 313 315 316 317 318 319 320 321 321 322 323 323 322 323 324 324 325 326 329 332 336 340 344 347 349 349 348 348 348 349 352 354 355 356 358
301 303 305 307 309 311 313 314 316 317 318 319 320 321 322 322 323 323 324 324 324 325 326 326 328 330 333 336 341 346 347 347 348 348 348 348 348 349 351 354 357 360 3
303 305 307 309 311 313 315 317 318 319 320 321 322 322 323 324 324 325 325 326 326 327 329 330 332 335 338 341 343 344 346 346 346 346 346 347 347 348 350 353 357 1 6
306 307 309 311 313 315 317 318 319 320 321 322 323 323 324 325 325 326 327 328 328 329 332 335 338 341 343 345 346 347 346 345 344 343 343 344 345 346 348 352 356 0 7
308 309 312 314 316 317 318 319 321 322 322 323 323 324 325 325 325 327 328 329 330 332 336 339 342 344 346 348 349 348 346 344 343 341 340 340 342 344 346 351 355 0 8
310 312 314 316 317 319 320 321 322 323 323 324 324 324 325 325 326 327 329 331 332 335 339 343 346 349 350 351 350 348 346 344 342 340 337 336 337 340 343 348 354 2 12
313 315 316 318 319 320 321 322 323 324 324 325 325 325 325 325 326 327 329 332 336 342 347 351 354 355 354 353 350 348 347 345 343 341 339 337 337 339 342 345 350 359 14
315 316 318 319 320 321 322 323 324 324 325 325 325 325 326 327 328 330 333 338 344 349 354 357 357 356 353 351 348 345 344 343 343 343 343 343 343 344 345 345 346 354 12
316 318 319 320 322 322 323 323 324 325 325 325 326 326 327 328 330 335 341 348 355 0 3 2 0 358 355 352 349 346 346 346 348 349 351 352 353 353 352 351 353 356 10
318 319 320 322 322 323 323 324 324 325 326 326 326 326 327 329 334 343 353 2 8 10 9 7 5 3 1 0 359 358 358 359 2 3 2 1 360 359 359 359 360 1 8
319 320 321 322 323 323 324 324 325 325 326 326 326 327 328 333 343 358 11 19 21 18 15 13 11 10 9 10 11 12 13 14 14 13 12 12 11 10 10 10 10 11 16
320 321 322 322 323 323 324 325 325 325 326 326 327 328 332 345 7 27 38 39 32 27 24 21 19 18 17 17 18 19 20 20 20 20 21 22 21 21 20 20 22 26 35
321 322 322 322 323 324 324 325 325 326 326 327 328 332 346 26 56 65 63 52 43 37 33 29 26 24 25 25 24 24 24 25 25 27 29 29 30 31 31 32 36 41 51